Location: Remedello Sotto
(45.2500°N, 10.3667°E)
Time: 20:58:04
(UTC+00:00)

YAOGAN 1 - Visible Passes

Search period start: 29 September 2023 00:00
Search period end: 09 October 2023 00:00
Orbit: 614 x 616 km, 97.8° (Epoch: 28 September)

Date Brightness Start Highest point End Pass type
(mag) Time Alt. Az. Time Alt. Az. Time Alt. Az.
29 Sep 2.5 18:02:11 10° SSE 18:06:30 90° NW 18:10:49 10° NNW visible
30 Sep 3.1 18:18:05 10° S 18:22:20 61° W 18:26:37 10° NNW visible
01 Oct 3.9 18:34:09 10° S 18:38:13 41° W 18:42:19 10° NNW visible
02 Oct 4.6 18:50:25 10° SSW 18:54:08 28° W 18:57:53 10° NW visible
03 Oct 3.0 17:29:51 10° SE 17:33:53 41° ENE 17:37:57 10° N visible
03 Oct 5.2 19:06:55 10° SW 19:10:05 20° W 19:13:16 10° NW visible
04 Oct 2.6 17:45:26 10° SSE 17:49:39 60° ENE 17:53:54 10° N visible
04 Oct 5.6 19:23:51 10° WSW 19:26:04 14° W 19:28:17 10° WNW visible
05 Oct 2.5 18:01:09 10° SSE 18:05:26 88° E 18:09:47 10° NNW visible
06 Oct 3.0 18:17:01 10° S 18:21:17 63° W 18:25:34 10° NNW visible
07 Oct 3.8 18:33:04 10° S 18:37:08 42° W 18:41:15 10° NNW visible
08 Oct 3.5 17:13:24 10° SE 17:17:04 28° ENE 17:20:47 10° N visible
08 Oct 4.5 18:49:17 10° SSW 18:53:02 29° W 18:56:48 10° NW visible
